Airfield :
LOGIN :

Register | Disclaimer

   EN    FR    IT 

 










Legend :    VFR   Marginal VFR   IFR   Intensive IFR   Very Intensive IFR
Visi :
Ceiling :
>= 8 km
>= 3000ft
5 to 8 km
1000 to 3000 ft
1500m to 5 km
500 to 1000 ft
800 to 1500m
200 to 500 ft
< 800m
< 200 ft
Symbols :   Thunderstorms  Fog  Heavy snow  Heavy precipitations  Wind > 20 kt
SIGMETs :     Misc.  Thunderstorms  Icing  Turbulence  Mountain Waves  Volcanic Ashes






- Airport Elevation : 1568 ft


ETSB - Büchel AB

CURRENT METAR :
  • 162020Z AUTO 20007KT //// // ////// 14/11 Q1010 ///

EXPIRED METARs :
  • 161920Z AUTO 21007KT //// // ////// 14/11 Q1010 ///
  • 161820Z AUTO 22010KT //// // ////// 14/11 Q1010 ///
  • 161720Z AUTO 21012KT //// // ////// 14/12 Q1009 ///
  • 161620Z AUTO 22013KT //// // ////// 13/12 Q1009 ///

Expired Forecast.



MET'MAP, your aeronautical weather chart ! - Copyright ORBIFLY December 2007 - Disclaimer

ORBIFLY MET'MAP TEAM :

Programming & Development : Alexandra Zaïnal
Original concept : Baudouin d'Aumeries
Technical & hardware support : Manuel Goepfert
Assistance : Marc-Olivier Méhu




SOURCES & CREDITS :

   NOAA